Regional Weather Roundup
Issued by NWS Kansas City/Pleasant Hill, MO

Home | Current Version | Previous Version | Graphics & Text | Print | Product List | Glossary Off
Versions: 1 2 3 4 5 6 7 8 9 10 11 12 13 14 15 16 17 18 19 20 21 22 23 24 25 26 27 28 29 30 31 32 33 34 35 36 37 38 39 40 41 42 43 44 45 46 47 48 49 50

000
ASUS43 KEAX 282304
RWREAX

WEATHER ROUNDUP FOR EASTERN KANSAS AND NORTHWEST MISSOURI
NATIONAL WEATHER SERVICE KANSAS CITY/PLEASANT HILL MO
500 PM CST FRI NOV 28 2014

KSZ040-057-103>105-MOZ028-029-037-043-290000-
...KANSAS CITY METROPOLITAN AREA...

CITY           SKY/WX    TMP DP  RH WIND       PRES   REMARKS
K.C. INTL      MOCLDY    50  34  54 S10       29.79S
K.C. DOWNTOWN  PTCLDY    56  33  42 S8        29.80S
LEES SUMMIT    PTCLDY    55  33  43 S12       29.82R
OLATHE - IXD   PTCLDY    53  34  48 S9        29.82S
OLATHE - OJC   PTCLDY    55  34  45 SW8       29.81S
LAWRENCE       PTCLDY    58  33  39 S13       29.79S

$$

MOZ001>008-011>017-020>025-030>033-038>040-044>046-053-054-290000-
...NORTHERN AND CENTRAL MISSOURI...

CITY           SKY/WX    TMP DP  RH WIND       PRES   REMARKS
ST. JOSEPH     PTCLDY    50  33  52 SE6       29.76F
MOSBY          PTCLDY    55  32  41 SE5       29.80S
WARRENSBURG    PTCLDY    54  34  47 S9        29.83R
WHITEMAN AFB   PTCLDY    56  37  48 SW12      29.82F
CLINTON        PTCLDY    57  37  47 CALM      29.84S
SEDALIA        PTCLDY    54  34  46 S8        29.84F
WARSAW         NOT AVBL
MARSHALL       MOCLDY    57  37  47 S7        29.83F
CHILLICOTHE      N/A     48  34  58 S3        29.81F
KIRKSVILLE     PTCLDY    41  33  73 SE7       29.82F

$$

MOZ041-047>049-056>058-063>065-088>090-097-290000-
...EASTERN AND SOUTHERN MISSOURI...

CITY           SKY/WX    TMP DP  RH WIND       PRES   REMARKS
ST. LOUIS INTL MOCLDY    50  33  52 SE10      29.93F
SPIRIT OF STL  MOCLDY    50  32  50 S7        29.91F
COLUMBIA       MOCLDY    53  34  48 S10       29.85F
JEFFERSON CITY MOCLDY    55  33  43 SE7       29.87S
MEXICO         PTCLDY    50  41  71 S7        29.86S
ROLLA          PTCLDY    50  33  52 S12       29.89F
LEBANON        PTCLDY    55  32  41 S10       29.89F
OSAGE BEACH    MOCLDY    57  34  41 S8        29.87S
SPRINGFIELD    CLEAR     57  34  41 S16       29.89F
BRANSON        PTCLDY    57  34  41 S9        29.96F
JOPLIN         CLEAR     60  36  40 S16       29.87F
WEST PLAINS    CLEAR     50  32  50 S13G22    29.99F

$$

IAZ060-094-KSZ022-034>040-054-083-096-NEZ052-066-093-290000-
...KANSAS...SOUTHEAST NEBRASKA AND IOWA...

CITY           SKY/WX    TMP DP  RH WIND       PRES   REMARKS
TOPEKA         CLEAR     61  34  36 S10       29.77F
MANHATTAN      PTCLDY    60  34  37 SW13      29.75R
EMPORIA        PTCLDY    56  35  45 S8        29.80F
CHANUTE        PTCLDY    57  36  45 S14       29.85R
WICHITA        MOCLDY    59  36  42 S14       29.81S
OMAHA          PTCLDY    46  31  55 S9        29.69F
LINCOLN        CLEAR     54  31  41 S10       29.67F
FALLS CITY     CLEAR     48  32  53 SE6       29.71F
LAMONI         CLEAR     45  31  58 S7        29.76F
DES MOINES     PTCLDY    42  30  62 SE8       29.77F

$$



USA.gov is the U.S. government's official web portal to all federal, state and local government web resources and services.